Regional Weather Roundup
Issued by NWS

Home | Current Version | Previous Version | Text Only | Print | Product List | Glossary On
Versions: 1 2 3 4 5 6 7 8 9 10 11 12 13 14 15 16 17 18 19 20 21 22 23 24 25 26 27 28 29 30 31 32 33 34 35 36 37 38 39 40 41 42 43 44 45 46 47 48 49 50
000
ASUS43 KDMX 271906
RWRIA

WEATHER ROUNDUP FOR IOWA
NATIONAL WEATHER SERVICE DES MOINES IA
200 PM CDT SAT MAY 27 2017

NOTE: "FAIR" INDICATES FEW OR NO CLOUDS BELOW 12,000 FEET WITH NO
SIGNIFICANT WEATHER AND/OR OBSTRUCTIONS TO VISIBILITY.

* - THESE STATIONS ARE NOT NWS STATIONS...THUS NOT UNDER NWS
QUALITY CONTROL.  THEY ALSO DO NOT REPORT WEATHER SUCH
AS PRECIPITATION OR FOG.

IAZ001>003-012>014-020>022-031>034-043>046-272000-
   NORTHWEST IOWA

CITY           SKY/WX    TMP DP  RH WIND       PRES   REMARKS
CARROLL *      CLOUDY    63  57  82 NE12      29.89F
CHEROKEE *     CLOUDY    67  53  62 NE8       29.92S
DENISON *      CLOUDY    64  54  68 NE10      29.89F
LE MARS *      CLOUDY    66  50  55 N10       29.94F
ORANGE CITY *  PTSUNNY   61  54  77 N6        29.95F
SHELDON *      CLOUDY    61  54  77 NW8       29.94F
SIOUX CITY     MOSUNNY   73  52  47 N12       29.90F
SPENCER        CLOUDY    65  52  62 E3        29.94F
STORM LAKE *   CLOUDY    64  50  59 NE12      29.92F
$$

IAZ055>058-069>071-079>083-090>094-272000-
   SOUTHWEST IOWA

CITY           SKY/WX    TMP DP  RH WIND       PRES   REMARKS
ATLANTIC *     CLOUDY    63  55  77 NE14G20   29.87S
AUDUBON *      CLOUDY    61  55  82 NE13      29.90R
CLARINDA *     CLOUDY    66  61  82 NE9       29.84F
COUNCIL BLFS * MOSUNNY   66  59  77 NE14      29.87F
CRESTON *      CLOUDY    64  61  88 N18G24    29.84F
HARLAN  *      CLOUDY    64  57  77 NE20G25   29.90F
LAMONI         CLOUDY    70  61  73 VRB5G20   29.82F
RED OAK *      CLOUDY    68  61  77 NE14      29.84F
SHENANDOAH *   CLOUDY    68  61  77 NE10      29.83F
$$

IAZ047>049-059>061-072>074-084-272000-
   CENTRAL IOWA

CITY           SKY/WX    TMP DP  RH WIND       PRES   REMARKS
AMES           HVY RAIN  59  57  93 N9        29.89R FOG
ANKENY *       LGT RAIN  61  61 100 N13       29.87F
BOONE *        LGT RAIN  59  57  94 N12       29.88F
CHARITON *     CLOUDY    72  63  73 W12       29.83F
DES MOINES     LGT RAIN  64  61  90 N16G22    29.84F
GRINNELL*      HVY RAIN  64  60  88 NW6       29.88F
KNOXVILLE *    CLOUDY    66  63  88 N9        29.81S
MARSHALLTOWN   TSTM      60  59  96 NW7       29.89F FOG
NEWTON *       CLOUDY    63  61  94 N9        29.85F FOG
PELLA *        CLOUDY    67  63  86 N7        29.84F
PERRY *        RAIN      61  59  91 NE8       29.89F
$$

IAZ004>006-015-016-023>025-035-036-272000-
   NORTH CENTRAL IOWA

CITY           SKY/WX    TMP DP  RH WIND       PRES   REMARKS
ALGONA *       CLOUDY    68  48  49 CALM      29.94F
CLARION *      CLOUDY    66  45  45 N7        29.94F
ESTHERVILLE    CLOUDY    63  51  65 N5        29.94F
FORT DODGE *   CLOUDY    61  55  82 CALM      29.92F
MASON CITY     CLOUDY    68  48  48 NW5       29.95R
FOREST CITY *    N/A     70  43  37 SE3       29.94S
WEBSTER CITY * RAIN      61  57  88 NW8       29.89F
IOWA FALLS *   HVY RAIN  63  56  80 W5        29.93F
$$

IAZ007>011-017>019-026>030-037>042-050>054-066-272000-
   NORTHEAST IOWA

CITY           SKY/WX    TMP DP  RH WIND       PRES   REMARKS
CEDAR RAPIDS   CLOUDY    71  63  75 VRB3      29.88F
CHARLES CITY * CLOUDY    72  45  37 CALM      29.91F
CLINTON *      CLOUDY    71  62  73 SE3       29.90F
DECORAH *      CLOUDY    72  54  53 CALM      29.91S
DUBUQUE        MOSUNNY   70  61  73 W6        29.90F
MONTICELLO *   CLOUDY    70  61  73 CALM      29.90F
OELWEIN *      CLOUDY    72  59  64 CALM      29.90F
WATERLOO       CLOUDY    72  52  49 CALM      29.89F
$$

IAZ064-065-067-068-078-272000-
   EAST CENTRAL IOWA

CITY           SKY/WX    TMP DP  RH WIND       PRES   REMARKS
DAVENPORT      MOSUNNY   73  61  65 VRB3      29.90F
IOWA CITY      CLOUDY    73  64  73 S5        29.91F
MT. PLEASANT * CLOUDY    74  61  63 S7        29.89F
MUSCATINE *    CLOUDY    73  63  68 E5        29.89F
QUAD CITIES    CLOUDY    74  61  63 VRB3      29.88F
$$

IAZ062-063-075>077-085>089-095>099-272000-
   SOUTHEAST IOWA

CITY           SKY/WX    TMP DP  RH WIND       PRES   REMARKS
BURLINGTON     CLOUDY    71  63  75 E5        29.88F
FAIRFIELD *    CLOUDY    73  63  68 SE8G14    29.85F
FORT MADISON * CLOUDY    73  66  78 CALM      29.89S
KEOKUK *       CLOUDY    73  64  73 E5        29.87S
OSKALOOSA *    PTSUNNY   76  62  62 S3        29.84F
CENTERVILLE *    N/A     72  59  64 SE6       29.85F
OTTUMWA        PTSUNNY   74  64  71 SE9       29.84F
WASHINGTON *   CLOUDY    72  64  78 VRB5      29.88F
$$

ABBREVIATIONS USED IN REMARKS
   TC - TEMPERATURES IN CELSIUS
  WCI - WIND CHILL INDEX
   HX - HEAT INDEX
  VSB - VISIBILITY
$$





USA.gov is the U.S. government's official web portal to all federal, state and local government web resources and services.